Regional Weather Roundup
Issued by NWS Little Rock, AR

Home | Current Version | Previous Version | Text Only | Print | Product List | Glossary On
Versions: 1 2 3 4 5 6 7 8 9 10 11 12 13 14 15 16 17 18 19 20 21 22 23 24 25 26 27 28 29 30 31 32 33 34 35 36 37 38 39 40 41 42 43 44 45 46 47 48 49 50
000
ASUS44 KLZK 220805
RWRLZK

WEATHER ROUNDUP FOR ARKANSAS
NATIONAL WEATHER SERVICE LITTLE ROCK AR
300 AM CDT TUE MAY 22 2018

NOTE: "FAIR" INDICATES FEW OR NO CLOUDS BELOW 12,000 FEET WITH NO
SIGNIFICANT WEATHER AND/OR OBSTRUCTIONS TO VISIBILITY.

ARZ001-003-010-029-220900-
NORTHWEST ARKANSAS

CITY           SKY/WX    TMP DP  RH WIND       PRES   REMARKS
FAYETTEVILLE   FOG       64  64 100 CALM      30.01F VSB 1/4
FORT SMITH     PTCLDY    70  68  93 NE5       29.97F
HARRISON       CLEAR     64  64 100 CALM      30.02F
BENTONVILLE    CLEAR     67  65  93 CALM      30.03F
ROGERS         CLEAR     65  64  97 E3        30.02F
SILOAM SPGS    CLEAR     65  63  93 CALM      30.01F
HIGHFILL       CLEAR     63  60  90 N3        30.01F
$$

ARZ004-005-016-220900-
NORTH CENTRAL ARKANSAS

CITY           SKY/WX    TMP DP  RH WIND       PRES   REMARKS
BATESVILLE     PTCLDY    66  66 100 CALM      30.00S FOG
FLIPPIN        CLEAR     67  66  97 CALM      30.01S FOG
MTN HOME       CLEAR     67  67 100 CALM      30.00S
$$

ARZ040-041-220900-
WEST CENTRAL ARKANSAS

CITY           SKY/WX    TMP DP  RH WIND       PRES   REMARKS
MENA           NOT AVBL
MOUNT IDA      PTCLDY    67  67 100 CALM      29.98S
$$

ARZ009-017-025-026-028-220900-
NORTHEAST ARKANSAS

CITY           SKY/WX    TMP DP  RH WIND       PRES   REMARKS
CORNING        FAIR      70  70 100 CALM      29.99S FOG
JONESBORO      FAIR      68  68 100 CALM      29.98F FOG
WALNUT RIDGE     N/A     71  70  96 N3        29.99S
BLYTHEVILLE    FAIR      72  70  93 CALM      29.99S FOG
$$

ARZ022-023-033-042-044-220900-
CENTRAL ARKANSAS

CITY           SKY/WX    TMP DP  RH WIND       PRES   REMARKS
LITTLE ROCK    CLOUDY    70  70 100 SE3       29.98F
N LITTLE ROCK    N/A     70  69  98 CALM      29.94F
JACKSONVILLE   CLEAR     69  69 100 CALM      29.98S
CONWAY         SUNNY     70  70 100 CALM      29.97F FOG
SEARCY         FAIR      68  68 100 CALM      29.99S FOG
HOT SPRINGS    CLOUDY    69  69 100 NW3       29.98
RUSSELLVILLE   CLEAR     68  68 100 CALM      29.97F FOG
CLINTON        MOCLDY    66  66 100 CALM      30.00S FOG
$$

ARZ036-220900-
EAST ARKANSAS

CITY           SKY/WX    TMP DP  RH WIND       PRES   REMARKS
WEST MEMPHIS   FOG       71  71 100 CALM      29.97S VSB 1/2
$$

ARZ050-053-066-070-073-220900-
SOUTHWEST ARKANSAS

CITY           SKY/WX    TMP DP  RH WIND       PRES   REMARKS
ARKADELPHIA    FAIR      70  69  97 N5        29.97F FOG
CAMDEN         FAIR      68  66  94 CALM      29.96S FOG
TEXARKANA      PTCLDY    70  69  97 CALM      29.97S
EL DORADO      FAIR      69  69 100 CALM      29.97R
DE QUEEN       CLOUDY    73  72  96 E3        29.95F
$$

ARZ056-057-069-220900-
SOUTHEAST ARKANSAS

CITY           SKY/WX    TMP DP  RH WIND       PRES   REMARKS
PINE BLUFF     FAIR      70  68  93 CALM      29.97F
STUTTGART      FAIR      70  69  97 CALM      29.98F
MONTICELLO     CLOUDY    70  69  97 CALM      29.97F FOG

$$





USA.gov is the U.S. government's official web portal to all federal, state and local government web resources and services.